Change the Weather History Date:

Wednesday, October 26, 2011

  Actual Average Record
Temperature  
Mean Temperature 80 °F -  
Max Temperature 84 °F 83 °F 90 °F (1993)
Min Temperature 75 °F 67 °F 55 °F (1990)
Cooling Degree Days 14    
Growing Degree Days 30 (Base 50)    
Moisture  
Dew Point 65 °F    
Average Humidity 65    
Maximum Humidity 74    
Minimum Humidity 51    
Precipitation  
Precipitation 0.00 in - - ()
Sea Level Pressure  
Sea Level Pressure 30.00 in    
Wind  
Wind Speed 9 mph (ENE)    
Max Wind Speed 17 mph    
Max Gust Speed 22 mph    
Visibility 10 miles    
Events      
Averages and records for this station are not official NWS values.
T = Trace of Precipitation, MM = Missing Value Source: NWS Daily Summary

Daily Weather History Graph

Daily Weather History Graph

Search for Another Location

Airport or City:

Trip Planner

Search our weather history database for the weather conditions in past years. The results will help you decide how hot, cold, wet, or windy it might be!

Date:

Astronomy

Oct. 26, 2011 Rise Set
Actual Time 7:25 AM EDT 6:43 PM EDT
Civil Twilight 7:02 AM EDT 7:07 PM EDT
Nautical Twilight 6:35 AM EDT 7:34 PM EDT
Astronomical Twilight 6:08 AM EDT 8:01 PM EDT
Moon 7:07 AM EDT (10/26) 6:32 PM EDT (10/26)
Length of Visible Light 12h 05m
Length of Day
11h 18m
Waning Crescent, 0% of the Moon is Illuminated
Oct 26
Waning Crescent
Oct 26
New
Nov 2
First Quarter
Nov 10
Full
Nov 18
Last Quarter

Hourly Weather History & Observations

Time (EDT) Temp. Heat Index Dew Point Humidity Pressure Visibility Wind Dir Wind Speed Gust Speed Precip Events Conditions
12:53 AM 75.0 °F - 64.9 °F 71% 30.06 in 10.0 mi ENE 9.2 mph - N/A   Clear
1:53 AM 75.0 °F - 64.9 °F 71% 30.04 in 10.0 mi ENE 8.1 mph - N/A   Clear
2:53 AM 75.0 °F - 66.0 °F 73% 30.03 in 10.0 mi ENE 6.9 mph - N/A   Clear
3:53 AM 75.0 °F - 66.0 °F 73% 30.01 in 10.0 mi ENE 8.1 mph - N/A   Partly Cloudy
4:53 AM 75.0 °F - 64.9 °F 71% 29.99 in 10.0 mi ENE 6.9 mph - N/A   Clear
5:53 AM 75.0 °F - 64.9 °F 71% 30.00 in 10.0 mi ENE 4.6 mph - N/A   Scattered Clouds
6:53 AM 75.2 °F - 64.4 °F 69% 30.00 in 10.0 mi ENE 8.1 mph - N/A   Mostly Cloudy
7:53 AM 75.2 °F - 66.2 °F 73% 30.02 in 10.0 mi ENE 3.5 mph - N/A   Mostly Cloudy
8:53 AM 77.0 °F - 66.0 °F 69% 30.04 in 10.0 mi ENE 4.6 mph - N/A   Mostly Cloudy
9:53 AM 82.0 °F 83.8 °F 64.9 °F 56% 30.04 in 10.0 mi East 13.8 mph - N/A   Scattered Clouds
10:53 AM 82.4 °F 83.4 °F 62.6 °F 51% 30.05 in 10.0 mi East 15.0 mph 19.6 mph N/A   Partly Cloudy
11:53 AM 82.0 °F 83.8 °F 64.9 °F 56% 30.04 in 10.0 mi East 16.1 mph 21.9 mph N/A   Mostly Cloudy
12:53 PM 84.0 °F 85.4 °F 64.0 °F 51% 30.03 in 10.0 mi East 17.3 mph - N/A   Scattered Clouds
1:53 PM 84.9 °F 86.6 °F 64.9 °F 51% 30.00 in 10.0 mi East 15.0 mph - N/A   Partly Cloudy
2:53 PM 84.0 °F 86.3 °F 66.0 °F 55% 29.98 in 10.0 mi ENE 13.8 mph - N/A   Mostly Cloudy
3:53 PM 82.9 °F 84.6 °F 64.9 °F 54% 29.96 in 10.0 mi East 12.7 mph - N/A   Partly Cloudy
4:53 PM 82.0 °F 84.1 °F 66.0 °F 58% 29.96 in 10.0 mi ENE 12.7 mph - N/A   Scattered Clouds
5:53 PM 81.0 °F 82.7 °F 64.9 °F 58% 29.96 in 10.0 mi East 13.8 mph - N/A   Clear
6:53 PM 79.0 °F - 66.0 °F 64% 29.96 in 10.0 mi East 8.1 mph - N/A   Overcast
7:53 PM 77.0 °F - 66.0 °F 69% 29.97 in 10.0 mi ENE 5.8 mph - N/A   Clear
8:53 PM 77.0 °F - 66.9 °F 71% 29.98 in 10.0 mi East 6.9 mph - N/A   Partly Cloudy
9:53 PM 75.9 °F - 66.9 °F 74% 29.99 in 10.0 mi East 5.8 mph - N/A   Scattered Clouds
10:53 PM 75.9 °F - 66.9 °F 74% 29.99 in 10.0 mi East 5.8 mph - N/A   Partly Cloudy
11:53 PM 75.2 °F - 66.2 °F 73% 29.99 in 10.0 mi East 3.5 mph - N/A   Clear